Weather Roundup
Issued by NWS

Home | Current Version | Previous Version | Text Only | Print | Product List | Glossary On
Versions: 1 2 3 4 5 6 7 8 9 10 11 12 13 14 15 16 17 18 19 20 21 22 23 24 25 26 27 28 29 30 31 32 33 34 35 36 37 38 39 40 41 42 43 44 45 46 47 48 49 50
000
NZUS93 KARX 221759
HRRWXR

CURRENT HOURLY OBSERVATIONS ACROSS
MUCH OF THE UPPER MISSISSIPPI VALLEY
NATIONAL WEATHER SERVICE LA CROSSE WI
1200 PM CST SAT NOV 22 2014


...SOUTHEAST MINNESOTA...


CITY           SKY/WX    TMP DP  RH WIND       PRES   REMARKS
ROCHESTER      FOG       36  35  96 S14       29.75F VSB 1/2 WCI  27
ROCHESTER/MAYO CLOUDY    37  36  95 S6        29.75F WCI  32
WINONA         CLOUDY    37  36  93 SW6       29.78F FOG     WCI  33
AUSTIN         FOG       36  34  93 S12       29.75S VSB<1/4 WCI  27
ALBERT LEA     FOG       36  36 100 S9        29.74F VSB 1   WCI  29
DODGE CENTER   CLOUDY    36  36 100 SW15      29.73F FOG     WCI  26
PRESTON        FOG       35  34  97 S14       29.76F VSB 1/2 WCI  25
OWATONNA       CLOUDY    36  34  93 S10       29.73F FOG     WCI  28
FARIBAULT      CLOUDY    36  34  93 S8        29.73F FOG     WCI  29
$$

...ELSEWHERE IN MINNESOTA...


CITY           SKY/WX    TMP DP  RH WIND       PRES   REMARKS
MINNEAPOLIS    CLOUDY    34  33  96 SW8       29.72F FOG     WCI  27
INTNL FALLS    CLOUDY    36  29  75 S6        29.59F WCI  31
DULUTH         CLOUDY    32  28  85 SW7       29.65F FOG     WCI  26
RED WING         N/A     37  36  93 SW3       29.74F FOG
REDWOOD FALLS  CLOUDY    35  33  92 S12       29.67F FOG     WCI  27
MANKATO        CLOUDY    36  30  80 S13       29.72F WCI  27
WORTHINGTON    CLOUDY    34  32  93 SW14      29.68F VSB 1/4 WCI  24
FAIRMONT       CLOUDY    36  32  87 SW12      29.72F WCI  27
$$

...SOUTHWEST WISCONSIN...


CITY           SKY/WX    TMP DP  RH WIND       PRES   REMARKS
LA CROSSE      CLOUDY    38  35  89 S12       29.78F FOG     WCI  30
PRAIRIE DU CHI CLOUDY    38  37  94 CALM      29.83F FOG
BOSCOBEL       FOG       39  37  92 SW3       29.83F VSB 1
LONE ROCK      NOT AVBL
PLATTEVILLE    CLOUDY    39  38  97 CALM      29.85F VSB<1/4
FORT MC COY    CLOUDY    37  36  94 SW6       29.80F FOG     WCI  33
VIROQUA        CLOUDY   N/A N/A N/A S10       29.79F VSB 1/4
WIS DELLS      CLOUDY    38  37  94 SW8       29.82S FOG     WCI  32
$$

...ELSEWHERE IN WISCONSIN...


CITY           SKY/WX    TMP DP  RH WIND       PRES   REMARKS
MILWAUKEE      FOG       42  39  89 SW10      29.87F VSB 1
MADISON        FOG       39  38  96 SW7       29.84F VSB 1/2 WCI  34
GREEN BAY      CLOUDY    37  34  89 SW12      29.80F FOG     WCI  29
EAU CLAIRE     NOT AVBL
BLACK RVR FLS  CLOUDY    38  38  99 S7        29.78F FOG     WCI  32
MEDFORD        FOG       33  32  98 SW12      29.74F VSB 1/2 WCI  24
WAUSAU         FOG       34  34 100 SW3       29.76F VSB 1
WIS RAPIDS     CLOUDY    35  33  92 SW10      29.79F WCI  27
MARSHFIELD     FOG       35  34  96 SW7       29.76F VSB<1/4 WCI  29
RICE LAKE      CLOUDY    35  32  90 S7        29.75F FOG     WCI  29
$$

...NORTHEAST IOWA...


CITY           SKY/WX    TMP DP  RH WIND       PRES   REMARKS
DECORAH        CLOUDY    37  37 100 VRB7      29.79F FOG     WCI  32
MASON CITY     FOG       38  38 100 SW13      29.77F VSB 1/2 WCI  30
CHARLES CITY   FOG       37  37 100 S10G17    29.80F VSB<1/4 WCI  30
OELWEIN        FOG       39  39 100 S12       29.82F VSB<1/4 WCI  32
$$

...ELSEWHERE IN IOWA...


CITY           SKY/WX    TMP DP  RH WIND       PRES   REMARKS
DES MOINES     CLOUDY    49  43  80 SW14      29.81F
IOWA CITY      CLOUDY    47  47 100 SW6       29.89F FOG
FORT DODGE     CLOUDY    41  37  87 S13G21    29.78F
$$

...NORTHERN ILLINOIS...


CITY           SKY/WX    TMP DP  RH WIND       PRES   REMARKS
CHICAGO-OHARE  CLOUDY    42  38  85 S13       29.93F FOG
CHICAGO-MIDWAY CLOUDY    45  39  79 S8        29.95F
MOLINE         CLOUDY    51  46  83 SW10G21   29.87F
ROCKFORD       CLOUDY    44  41  89 S12       29.90F FOG
PEORIA         CLOUDY    55  45  68 SW12      29.95F
$$

NOTE: "FAIR" INDICATES FEW OR NO CLOUDS BELOW 12,000 FEET WITH NO
SIGNIFICANT WEATHER AND/OR OBSTRUCTIONS TO VISIBILITY. WIND
SPEEDS ARE IN MILES-PER-HOUR.



USA.gov is the U.S. government's official web portal to all federal, state and local government web resources and services.